Weather History for Lancaster, CA

Change the Weather History Date:

Tuesday, January 7, 2014

  Actual Average Record
Temperature  
Mean Temperature 41 °F 44 °F  
Max Temperature 60 °F 58 °F 80 °F (1969)
Min Temperature 22 °F 30 °F 11 °F (1950)
Degree Days  
Heating Degree Days 24    
Month to date heating degree days 144  
Since 1 July heating degree days 1500  
Cooling Degree Days 0    
Month to date cooling degree days 0  
Year to date cooling degree days 0  
Moisture  
Dew Point 10 °F    
Average Humidity 32    
Maximum Humidity 47    
Minimum Humidity 16    
Precipitation  
Precipitation 0.00 in 0.05 in 1.33 in (1993)
Month to date precipitation 0.00 0.35  
Year to date precipitation 0.00 0.35  
Since 1 July precipitation 1.61 2.82  
Snow  
Snow 0.00 in - T in (1977)
Month to date snowfall 0.0  
Since 1 July snowfall 0.0  
Snow Depth 0.00 in    
Sea Level Pressure  
Sea Level Pressure 30.17 in    
Wind  
Wind Speed 5 mph (West)    
Max Wind Speed 22 mph    
Max Gust Speed 29 mph    
Visibility 10 miles    
Events      
T = Trace of Precipitation, MM = Missing Value Source: NWS Daily Summary

Daily Weather History Graph

Daily Weather History Graph

Search for Another Location

Airport:

Trip Planner

Search our weather history database for the weather conditions in past years. The results will help you decide how hot, cold, wet, or windy it might be!

Date:

Astronomy

Jan. 07, 2014 Rise Set
Actual Time 7:00 AM PST 4:57 PM PST
Civil Twilight 6:33 AM PST 5:25 PM PST
Nautical Twilight 6:01 AM PST 5:56 PM PST
Astronomical Twilight 5:31 AM PST 6:27 PM PST
Moon 11:10 AM PST (1/7) No Moon Set
Length of Visible Light 10h 52m
Length of Day
9h 57m
Waxing Crescent, 46% of the Moon is Illuminated
Jan 7
Waxing Crescent
Jan 7
First Quarter
Jan 15
Full
Jan 23
Last Quarter
Jan 30
New

Hourly Weather History & Observations

Time (PST) Temp. Windchill Dew Point Humidity Pressure Visibility Wind Dir Wind Speed Gust Speed Precip Events Conditions
12:56 AM 26.1 °F - 6.1 °F 43% 30.23 in 10.0 mi Calm Calm - N/A   Clear
1:56 AM 26.1 °F - 6.1 °F 43% 30.25 in 10.0 mi Calm Calm - N/A   Clear
2:56 AM 27.0 °F - 7.0 °F 43% 30.23 in 10.0 mi Calm Calm - N/A   Clear
3:56 AM 21.9 °F 13.4 °F 5.0 °F 48% 30.24 in 10.0 mi NW 6.9 mph - N/A   Clear
4:56 AM 25.0 °F - 6.1 °F 45% 30.21 in 10.0 mi Calm Calm - N/A   Clear
5:56 AM 27.0 °F 21.6 °F 7.0 °F 43% 30.24 in 10.0 mi SSW 4.6 mph - N/A   Clear
6:56 AM 28.0 °F 21.7 °F 9.0 °F 45% 30.24 in 10.0 mi SSE 5.8 mph - N/A   Clear
7:56 AM 27.0 °F - 9.0 °F 47% 30.26 in 10.0 mi Calm Calm - N/A   Clear
8:56 AM 35.1 °F - 10.9 °F 37% 30.26 in 10.0 mi Calm Calm - N/A   Clear
9:56 AM 42.1 °F - 9.0 °F 26% 30.27 in 10.0 mi Calm Calm - N/A   Clear
10:56 AM 46.0 °F - 8.1 °F 21% 30.23 in 10.0 mi Calm Calm - N/A   Clear
11:56 AM 48.9 °F - 7.0 °F 18% 30.19 in 10.0 mi Calm Calm - N/A   Clear
12:56 PM 54.0 °F - 8.1 °F 16% 30.15 in 10.0 mi Calm Calm - N/A   Clear
1:56 PM 55.0 °F - 10.0 °F 17% 30.14 in 10.0 mi Calm Calm - N/A   Clear
2:56 PM 55.0 °F - 10.0 °F 17% 30.14 in 10.0 mi Calm Calm - N/A   Clear
3:56 PM 54.0 °F - 10.0 °F 17% 30.14 in 10.0 mi Calm Calm - N/A   Clear
4:46 PM 60.8 °F - 14.0 °F 16% 30.09 in 10.0 mi WNW 15.0 mph - N/A   Clear
4:56 PM 59.0 °F - 14.0 °F 17% 30.12 in 10.0 mi WNW 15.0 mph - N/A   Clear
5:52 PM 57.2 °F - 14.0 °F 18% 30.09 in 10.0 mi WNW 12.7 mph - N/A   Clear
5:56 PM 55.9 °F - 14.0 °F 19% 30.12 in 10.0 mi West 13.8 mph - N/A   Clear
6:56 PM 54.0 °F - 12.9 °F 20% 30.12 in 10.0 mi WNW 13.8 mph - N/A   Clear
7:56 PM 54.0 °F - 12.0 °F 19% 30.12 in 10.0 mi West 12.7 mph - N/A   Clear
8:56 PM 51.1 °F - 14.0 °F 23% 30.12 in 10.0 mi West 12.7 mph - N/A   Clear
9:56 PM 52.0 °F - 12.0 °F 20% 30.12 in 10.0 mi West 16.1 mph - N/A   Clear
10:56 PM 51.1 °F - 12.0 °F 21% 30.12 in 10.0 mi WNW 10.4 mph - N/A   Clear
11:56 PM 46.0 °F 43.1 °F 12.0 °F 25% 30.10 in 10.0 mi West 5.8 mph - N/A   Clear